Meteo pe oră la Aathal

Astăzi, 13 Iunie, Duminică

Timp Temperatura Precipitaţii Vânt Presiune Umiditate
00:00 +15°C° 0 mm 0 m/s 719 mmHg 93%
01:00 +15°C° 0 mm 0 m/s 719 mmHg 94%
02:00 +15°C° 0 mm 0 m/s 719 mmHg 95%
03:00 +15°C° 0 mm 0 m/s 719 mmHg 95%
04:00 +15°C° 0 mm 0 m/s 719 mmHg 96%
05:00 +15°C° 0 mm 0 m/s 719 mmHg 94%
06:00 +16°C° 0 mm 0 m/s 719 mmHg 93%
07:00 +19°C° 0 mm 1 m/s 720 mmHg 91%
08:00 +20°C° 0 mm 1 m/s 720 mmHg 83%
09:00 +21°C° 0 mm 1 m/s 720 mmHg 75%
10:00 +23°C° 0 mm 2 m/s 720 mmHg 68%
11:00 +24°C° 0 mm 2 m/s 720 mmHg 62%
12:00 +25°C° 0 mm 2 m/s 720 mmHg 56%
13:00 +25°C° 0 mm 2 m/s 720 mmHg 51%
14:00 +26°C° 0 mm 2 m/s 720 mmHg 50%
15:00 +26°C° 0 mm 3 m/s 720 mmHg 49%
16:00 +26°C° 0 mm 3 m/s 720 mmHg 48%
17:00 +24°C° 0 mm 3 m/s 720 mmHg 55%
18:00 +22°C° 0 mm 3 m/s 719 mmHg 63%
19:00 +20°C° 0 mm 3 m/s 719 mmHg 70%
20:00 +18°C° 0 mm 2 m/s 719 mmHg 76%
21:00 +16°C° 0 mm 2 m/s 719 mmHg 83%
22:00 +14°C° 0 mm 2 m/s 719 mmHg 89%
23:00 +13°C° 0 mm 1 m/s 719 mmHg 90%

Mâine, 14 Iunie, Luni

Timp Temperatura Precipitaţii Vânt Presiune Umiditate
00:00 +13°C° 0 mm 1 m/s 718 mmHg 92%
01:00 +12°C° 0 mm 1 m/s 718 mmHg 93%
02:00 +12°C° 0 mm 1 m/s 718 mmHg 93%
03:00 +11°C° 0 mm 1 m/s 718 mmHg 93%
04:00 +11°C° 0 mm 1 m/s 717 mmHg 93%
05:00 +12°C° 0 mm 1 m/s 717 mmHg 88%
06:00 +13°C° 0 mm 1 m/s 718 mmHg 83%
07:00 +15°C° 0 mm 1 m/s 718 mmHg 78%
08:00 +18°C° 0 mm 1 m/s 718 mmHg 71%
09:00 +20°C° 0 mm 1 m/s 718 mmHg 64%
10:00 +21°C° 0 mm 2 m/s 718 mmHg 57%
11:00 +24°C° 0 mm 2 m/s 717 mmHg 53%
12:00 +25°C° 0 mm 2 m/s 717 mmHg 48%
13:00 +26°C° 0 mm 2 m/s 717 mmHg 44%
14:00 +26°C° 0 mm 2 m/s 717 mmHg 44%
15:00 +27°C° 0 mm 2 m/s 717 mmHg 45%
16:00 +27°C° 0 mm 2 m/s 716 mmHg 45%
17:00 +25°C° 0 mm 2 m/s 716 mmHg 55%
18:00 +24°C° 0 mm 2 m/s 716 mmHg 65%
19:00 +22°C° 0 mm 1 m/s 716 mmHg 75%
20:00 +21°C° 0 mm 1 m/s 716 mmHg 80%
21:00 +19°C° 0 mm 1 m/s 716 mmHg 85%
22:00 +16°C° 0 mm 1 m/s 716 mmHg 90%
23:00 +15°C° 0 mm 1 m/s 716 mmHg 91%

Poimâine, 15 Iunie, Marţi

Timp Temperatura Precipitaţii Vânt Presiune Umiditate
00:00 +15°C° 0 mm 1 m/s 716 mmHg 91%
01:00 +14°C° 0 mm 1 m/s 716 mmHg 91%
02:00 +14°C° 0 mm 1 m/s 716 mmHg 91%
03:00 +14°C° 0 mm 1 m/s 716 mmHg 91%
04:00 +13°C° 0 mm 1 m/s 715 mmHg 91%
05:00 +14°C° 0 mm 0 m/s 716 mmHg 87%
06:00 +15°C° 0 mm 0 m/s 716 mmHg 82%
07:00 +17°C° 0 mm 0 m/s 716 mmHg 78%
08:00 +19°C° 0 mm 0 m/s 716 mmHg 70%
09:00 +21°C° 0 mm 0 m/s 716 mmHg 63%
10:00 +25°C° 0 mm 1 m/s 716 mmHg 55%
11:00 +26°C° 0 mm 1 m/s 716 mmHg 51%
12:00 +27°C° 0 mm 1 m/s 716 mmHg 46%
13:00 +28°C° 0 mm 2 m/s 716 mmHg 41%
14:00 +28°C° 0 mm 2 m/s 716 mmHg 41%
15:00 +28°C° 0 mm 1 m/s 716 mmHg 40%
16:00 +28°C° 0 mm 1 m/s 716 mmHg 40%
17:00 +27°C° 0 mm 1 m/s 716 mmHg 51%
18:00 +25°C° 0 mm 1 m/s 715 mmHg 62%
19:00 +24°C° 0 mm 1 m/s 715 mmHg 73%
20:00 +22°C° 0 mm 1 m/s 715 mmHg 77%
21:00 +20°C° 0 mm 1 m/s 715 mmHg 80%
22:00 +18°C° 0 mm 1 m/s 715 mmHg 84%
23:00 +18°C° 0 mm 1 m/s 715 mmHg 84%

16 Iunie, Miercuri

Timp Temperatura Precipitaţii Vânt Presiune Umiditate
00:00 +16°C° 0 mm 1 m/s 715 mmHg 84%
01:00 +16°C° 0 mm 1 m/s 715 mmHg 84%
02:00 +15°C° 0 mm 1 m/s 715 mmHg 85%
03:00 +15°C° 0 mm 1 m/s 714 mmHg 85%
04:00 +15°C° 0 mm 1 m/s 714 mmHg 86%
05:00 +15°C° 0 mm 0 m/s 714 mmHg 82%
06:00 +16°C° 0 mm 0 m/s 714 mmHg 78%
07:00 +18°C° 0 mm 0 m/s 714 mmHg 74%
08:00 +19°C° 0 mm 0 m/s 714 mmHg 68%
09:00 +23°C° 0 mm 1 m/s 714 mmHg 62%
10:00 +25°C° 0 mm 1 m/s 715 mmHg 56%
11:00 +26°C° 0 mm 1 m/s 714 mmHg 51%
12:00 +28°C° 0 mm 1 m/s 714 mmHg 47%
13:00 +29°C° 0 mm 1 m/s 714 mmHg 43%
14:00 +29°C° 0 mm 1 m/s 714 mmHg 42%
15:00 +29°C° 0 mm 1 m/s 714 mmHg 41%
16:00 +29°C° 0 mm 1 m/s 713 mmHg 40%
17:00 +28°C° 0 mm 1 m/s 713 mmHg 50%
18:00 +26°C° 0 mm 1 m/s 713 mmHg 60%
19:00 +25°C° 0 mm 1 m/s 713 mmHg 70%
20:00 +23°C° 0 mm 1 m/s 712 mmHg 74%
21:00 +21°C° 0 mm 1 m/s 712 mmHg 78%
22:00 +19°C° 0 mm 1 m/s 712 mmHg 83%
23:00 +19°C° 0 mm 1 m/s 712 mmHg 83%

17 Iunie, Joi

Timp Temperatura Precipitaţii Vânt Presiune Umiditate
00:00 +18°C° 0 mm 1 m/s 712 mmHg 83%
01:00 +18°C° 0 mm 1 m/s 712 mmHg 84%
02:00 +18°C° 0 mm 1 m/s 712 mmHg 84%
03:00 +18°C° 0 mm 1 m/s 712 mmHg 85%
04:00 +16°C° 0 mm 1 m/s 712 mmHg 85%
05:00 +19°C° 0 mm 1 m/s 712 mmHg 81%
06:00 +20°C° 0 mm 1 m/s 713 mmHg 78%
07:00 +19°C° 0 mm 0 m/s 713 mmHg 74%
08:00 +22°C° 0 mm 0 m/s 713 mmHg 67%
09:00 +24°C° 0 mm 0 m/s 713 mmHg 61%
10:00 +26°C° 0 mm 0 m/s 713 mmHg 54%
11:00 +29°C° 0 mm 1 m/s 713 mmHg 50%
12:00 +30°C° 0 mm 1 m/s 713 mmHg 46%
13:00 +31°C° 0 mm 1 m/s 713 mmHg 42%
14:00 +31°C° 0.1 mm 2 m/s 712 mmHg 44%
15:00 +30°C° 0.1 mm 2 m/s 712 mmHg 45%
16:00 +30°C° 0.1 mm 2 m/s 712 mmHg 46%
17:00 +28°C° 0.2 mm 2 m/s 712 mmHg 57%
18:00 +26°C° 0.2 mm 1 m/s 712 mmHg 68%
19:00 +24°C° 0.2 mm 1 m/s 711 mmHg 79%
20:00 +23°C° 0.1 mm 1 m/s 712 mmHg 82%
21:00 +21°C° 0.1 mm 1 m/s 712 mmHg 86%
22:00 +20°C° 0.1 mm 1 m/s 712 mmHg 89%
23:00 +19°C° 0.1 mm 1 m/s 712 mmHg 90%

18 Iunie, Vineri

Timp Temperatura Precipitaţii Vânt Presiune Umiditate
00:00 +19°C° 0.1 mm 1 m/s 712 mmHg 91%
01:00 +18°C° 0.1 mm 1 m/s 712 mmHg 92%
02:00 +17°C° 1.1 mm 2 m/s 712 mmHg 94%
03:00 +17°C° 1.1 mm 2 m/s 713 mmHg 95%
04:00 +17°C° 1.1 mm 2 m/s 713 mmHg 96%
05:00 +18°C° 0.4 mm 2 m/s 713 mmHg 96%
06:00 +18°C° 0.4 mm 2 m/s 714 mmHg 95%
07:00 +20°C° 0.4 mm 1 m/s 714 mmHg 94%
08:00 +21°C° 0 mm 1 m/s 714 mmHg 85%
09:00 +23°C° 0 mm 1 m/s 714 mmHg 77%
10:00 +25°C° 0 mm 1 m/s 714 mmHg 69%
11:00 +25°C° 0.2 mm 1 m/s 714 mmHg 66%
12:00 +26°C° 0.2 mm 1 m/s 714 mmHg 63%
13:00 +27°C° 0.2 mm 1 m/s 714 mmHg 61%
14:00 +27°C° 0.5 mm 1 m/s 714 mmHg 62%
15:00 +27°C° 0.5 mm 1 m/s 714 mmHg 63%
16:00 +27°C° 0.5 mm 1 m/s 714 mmHg 64%
17:00 +26°C° 0.6 mm 1 m/s 714 mmHg 71%
18:00 +25°C° 0.6 mm 1 m/s 714 mmHg 78%
19:00 +22°C° 0.6 mm 0 m/s 714 mmHg 85%
20:00 +23°C° 0.3 mm 1 m/s 715 mmHg 87%
21:00 +21°C° 0.3 mm 1 m/s 715 mmHg 90%
22:00 +20°C° 0.3 mm 1 m/s 715 mmHg 93%
23:00 +19°C° 0 mm 1 m/s 715 mmHg 93%
Arată mai mult

Formular de consimțământ

Meteoprog și furnizorii noștri de servicii pot stoca și accesa date personale, precum cookies, identificatori de dispozitiv sau alte tehnologii similare pe dispozitivul dumneavoastră și procesa astfel de date pentru a personaliza conținutul și reclamele, dar și pentru a oferi caracteristici de social media și pentru a analiza traficul.

  • Stocarea și/sau accesarea informațiilor pe dispozitivul dumneavoastră

    Cookies, identificatori de dispozitiv sau alte informații pot fi stocate sau accesate pe dispozitiv în scopurile indicate mai sus.

  • Reclame și conținut personalizat, evaluarea reclamelor și a conținutului, informații despre audiențe și dezvoltarea produselor

    Reclamele și conținutul pot fi personalizate pe baza unui profil. Pot fi adăugate date suplimentare pentru a personaliza mai bine reclamele și conținutul. Performanța reclamelor și conținutului poate fi măsurată. Pot fi obținute informații despre utilizatorii care au văzut reclamele și conținutul. Aceste date pot fi utilizate pentru a dezvolta sau îmbunătăți experiența utilizatorilor, sistemele și software-ul.

Dând clic pe ‘Sunt de acord’, permiteți utilizarea cookie-urilor menționate, a identificatorilor de dispozitiv, balizelor web sau altor tehnologii similare. Setările pot fi modificate din browser-ul dispozitivului dumneavoastră.

În anumite scopuri, interesele legitime pot prima asupra consimțământului. Puteți citi mai multe informații în acest sens în Politica privind Confidențialitatea Datelor și Cookie.